Lapse_Rate
1.9 7.7 7.3 8.2 6.5 6.5 6.5 6.5 6.5 6.5 6.5 7.2 7.4 6.9 6.6 7.0 6.5 6.5 7.6 7.8 7.5 7.6 7.4 4.5 3.2 3.6 3.7 3.9 4.0 4.2 4.6 4.7 4.7 4.7 4.8 4.9 5.1 5.3 5.3 5.3 5.4 5.5 5.7 6.1 6.3 6.3 6.5 6.6 6.3
4.3 7.3 9.0 7.6 6.5 6.5 6.5 6.5 6.5 6.5 6.8 7.4 7.4 7.2 6.8 6.5 8.0 7.8 7.0 8.2 8.5 6.8 5.5 3.9 2.9 3.3 3.4 3.4 3.6 3.8 4.2 4.4 4.5 4.7 4.9 5.1 5.3 5.5 5.3 5.4 5.2 5.3 5.6 5.9 6.1 6.3 6.4 6.3 6.0
4.4 7.8 7.5 6.5 6.5 6.5 6.5 6.5 6.5 6.7 7.3 7.2 6.9 7.6 7.3 7.0 7.3 6.5 7.8 8.2 7.4 5.3 4.2 2.8 2.7 3.2 3.3 3.2 3.3 3.4 3.5 3.7 3.9 4.1 4.4 4.7 4.9 5.3 5.4 5.2 5.3 5.4 5.5 5.8 6.1 6.2 6.1 5.8 5.6
8.9 8.4 7.7 6.5 6.5 6.5 6.5 6.5 6.5 6.5 7.1 7.4 7.3 6.5 7.9 8.0 7.9 7.7 9.2 8.9 8.6 5.6 3.4 1.3 1.8 2.3 2.7 2.7 2.5 2.4 2.5 2.6 2.7 2.9 3.0 3.5 4.0 4.3 4.5 4.7 4.8 5.2 5.7 5.9 5.9 5.8 5.4 5.5 5.3
8.9 7.7 6.5 6.5 6.5 6.5 6.5 6.7 6.9 6.5 6.7 6.9 7.3 6.7 7.2 8.5 7.9 9.2 9.3 9.5 8.7 5.6 3.5 1.5 1.2 2.0 2.4 2.5 2.3 2.2 2.1 2.3 2.5 2.5 2.7 2.8 3.0 3.3 3.9 4.2 4.5 4.9 5.0 5.3 5.5 5.5 5.3 5.2 5.0
7.2 7.3 6.5 6.5 6.5 6.5 6.5 7.0 6.9 6.7 6.9 7.1 6.9 7.0 7.3 8.9 8.9 9.1 9.4 8.3 7.0 5.6 4.8 3.4 2.2 2.1 2.0 1.9 1.9 1.9 2.1 2.5 2.8 3.0 3.2 3.3 3.4 3.4 3.8 4.0 4.5 4.8 5.1 5.2 5.3 5.2 5.2 5.1 4.9
6.7 6.5 6.5 6.5 6.5 6.5 6.5 7.2 6.6 6.6 6.7 6.8 7.6 6.5 7.6 8.4 8.9 8.4 8.2 7.4 6.4 5.7 5.0 5.1 5.1 2.3 2.1 1.9 1.7 1.8 2.0 2.4 2.8 3.4 3.8 4.1 4.9 5.0 4.7 5.3 4.9 4.6 4.4 4.5 4.8 4.9 4.9 4.8 4.7
7.5 6.5 6.5 6.5 6.5 6.5 6.7 6.9 7.3 6.9 6.7 8.0 8.0 6.6 6.7 8.1 7.9 8.1 8.9 8.0 7.1 6.0 5.1 5.0 5.3 4.9 4.6 4.0 2.9 2.2 2.9 3.1 3.5 4.1 3.9 4.3 6.5 6.1 6.9 6.0 5.6 5.4 4.7 4.3 4.4 4.6 4.7 4.7 4.7
8.1 6.5 6.5 6.5 6.5 6.5 6.9 6.5 7.4 7.8 7.2 7.5 7.8 7.7 7.0 7.0 7.5 8.9 8.7 8.0 6.7 6.0 4.9 4.7 4.3 4.3 5.1 5.2 4.6 3.6 4.6 3.6 4.7 4.4 3.8 4.5 4.9 5.4 6.2 6.5 6.5 6.3 6.0 5.2 4.6 4.5 4.5 4.7 4.6
6.7 6.5 6.5 6.5 6.5 6.5 6.7 6.7 6.9 6.9 6.9 7.0 7.4 8.0 7.2 8.0 8.6 8.5 8.4 8.2 7.8 6.3 5.2 4.2 3.3 3.1 4.1 5.0 4.8 5.1 4.9 4.8 4.9 4.0 3.2 3.6 4.4 5.5 5.9 6.0 6.6 7.3 6.3 5.7 6.1 5.9 4.9 4.4 5.4
6.8 6.5 6.5 6.7 7.0 7.1 6.7 6.7 7.3 6.7 6.5 7.0 7.0 7.6 8.2 8.4 8.5 8.4 8.5 8.5 8.5 7.6 5.3 4.9 3.3 2.8 2.8 3.9 4.2 4.3 4.3 3.8 4.0 3.7 2.4 2.9 3.9 5.0 4.9 4.9 5.3 5.4 6.9 7.7 7.0 7.5 7.8 7.3 6.3
6.5 6.7 6.9 6.9 7.2 7.0 6.5 7.2 6.7 6.9 6.9 7.7 7.7 8.1 8.3 8.2 8.2 8.3 8.2 8.5 8.3 8.2 6.0 4.5 3.3 2.6 2.8 3.7 3.3 3.6 3.6 3.4 3.2 4.0 2.2 2.5 2.9 3.4 3.6 4.3 4.4 5.3 6.7 6.1 6.7 6.0 5.6 6.0 6.7
6.5 6.5 7.1 7.3 7.2 7.1 7.3 6.7 6.7 6.8 7.5 8.0 8.0 8.2 8.1 8.2 8.3 8.0 8.4 8.5 8.2 8.1 6.8 4.6 3.2 2.5 2.8 2.7 2.8 3.0 2.8 3.1 3.6 4.5 2.8 2.8 3.0 2.7 3.5 4.2 5.5 6.7 8.1 6.7 4.0 4.1 4.2 3.7 3.6
6.9 6.8 6.8 7.1 7.0 7.1 6.6 6.6 6.9 7.1 7.8 7.7 7.8 7.8 8.0 8.1 8.1 7.8 7.9 8.1 8.5 8.3 6.3 4.6 3.2 2.7 3.3 3.1 3.1 3.2 2.3 3.6 4.2 4.6 4.0 3.1 3.7 3.5 3.8 4.2 6.0 7.7 7.1 6.1 5.5 5.5 5.5 5.1 4.9
7.1 6.5 6.5 6.6 6.8 6.6 7.1 6.5 6.5 7.4 7.6 7.3 7.6 7.8 7.9 8.1 8.2 7.9 8.1 8.4 8.6 8.3 6.9 5.0 3.5 3.1 3.1 3.2 3.1 3.8 2.6 4.3 4.4 4.8 5.9 3.1 4.3 3.9 3.9 4.5 6.4 7.5 6.0 6.7 8.1 6.5 5.7 5.5 5.5
6.5 6.5 6.5 6.5 6.5 6.7 6.7 6.5 6.5 7.4 7.2 7.0 7.3 7.4 7.5 7.6 8.0 8.3 8.5 8.4 8.5 8.6 8.3 5.5 5.3 3.2 3.3 3.0 3.3 3.4 3.5 4.5 4.9 5.0 5.8 3.2 4.1 3.9 3.9 4.2 5.8 5.7 5.8 7.9 7.6 7.4 6.2 5.1 4.5
6.5 6.5 6.5 6.5 6.5 6.5 6.5 6.5 6.5 7.3 7.0 6.7 7.1 7.4 7.5 7.6 7.9 8.2 8.4 8.2 8.7 8.4 8.5 7.6 4.8 3.0 3.3 3.5 4.0 4.6 5.9 6.3 6.6 6.9 5.7 4.2 4.1 3.9 3.6 4.3 6.3 5.4 5.6 6.6 6.8 5.5 5.0 3.9 4.1
6.5 6.5 6.5 6.5 6.5 6.5 6.5 6.5 6.5 7.0 6.9 6.7 7.0 7.2 7.3 7.3 7.7 7.6 8.4 8.3 8.6 8.1 7.7 6.7 5.6 3.8 4.1 4.3 6.1 7.8 7.7 6.6 8.3 7.8 6.5 5.6 4.8 4.6 4.5 5.5 5.4 5.7 5.5 5.3 5.1 6.5 5.0 4.5 5.6
6.5 6.5 6.5 6.5 6.5 6.5 6.5 6.5 6.5 6.7 6.8 6.5 6.7 6.9 7.2 7.4 8.0 7.7 8.3 8.0 8.6 7.7 7.8 7.2 5.7 4.6 5.0 6.0 5.3 5.5 5.8 7.0 7.5 8.0 7.8 8.1 6.3 5.6 5.5 5.6 5.4 5.6 4.6 4.2 5.9 6.2 4.8 4.1 5.1
6.5 6.5 6.5 6.5 6.5 6.5 6.5 6.5 6.5 6.5 6.5 6.7 6.5 6.8 7.1 7.3 7.5 7.3 8.0 8.2 8.2 8.1 8.7 8.3 8.4 6.2 5.4 5.3 5.5 5.4 5.6 6.9 7.6 7.6 8.5 7.9 7.1 6.4 6.5 5.4 5.8 5.6 3.6 3.3 4.8 6.1 6.8 6.5 7.1
6.5 6.5 6.5 6.5 6.5 6.5 6.5 6.5 6.5 6.5 6.7 6.9 7.0 6.8 7.2 7.0 7.2 6.7 7.9 8.1 8.2 8.0 8.3 8.9 8.6 8.0 4.8 5.0 7.6 6.0 7.6 7.8 6.8 6.5 7.8 7.0 8.6 8.2 7.8 7.2 6.5 6.6 6.8 5.9 6.2 7.0 6.9 6.5 6.0
6.5 6.5 6.5 6.5 6.5 6.5 6.5 6.5 6.5 6.5 6.5 6.5 6.6 6.6 6.7 7.0 7.1 6.9 7.9 7.8 7.6 7.4 8.0 8.5 8.6 8.4 5.9 5.0 6.4 5.9 7.3 7.4 7.4 7.7 7.7 7.6 9.0 8.6 8.9 8.3 7.3 6.6 7.7 7.1 6.6 7.0 6.5 6.7 6.8
6.5 6.5 6.5 6.5 6.5 6.5 6.5 6.5 6.5 6.5 6.5 6.5 6.5 6.5 6.5 6.4 6.7 7.3 7.9 8.0 8.3 7.2 7.6 8.5 8.7 8.3 6.6 5.7 5.1 5.4 5.5 6.4 7.8 7.7 7.2 8.3 7.3 8.9 9.0 8.6 7.5 7.2 7.6 7.2 5.5 5.5 6.2 6.8 6.8
6.5 6.5 6.5 6.5 6.5 6.5 6.5 6.5 6.5 6.5 6.5 6.5 6.5 6.6 6.5 6.8 6.8 7.6 7.9 8.0 7.4 7.5 8.1 8.6 8.7 8.4 7.2 6.2 5.5 5.2 5.3 5.5 6.6 7.0 7.5 7.2 7.5 8.0 8.4 8.1 7.9 7.0 6.3 5.8 6.4 6.7 6.8 7.1 6.9
6.5 6.5 6.5 6.5 6.5 6.5 6.5 6.5 6.5 6.5 6.5 6.5 6.5 6.5 6.3 6.1 6.6 7.1 7.7 7.9 7.5 7.8 8.4 8.6 8.8 8.2 7.4 6.6 6.2 6.3 5.8 7.1 6.9 7.1 6.2 5.7 7.3 7.2 7.5 7.0 7.2 6.9 7.1 7.1 7.2 7.0 7.2 7.1 7.0
6.5 6.5 6.5 6.5 6.5 6.5 6.5 6.5 6.5 6.5 6.6 6.9 6.9 6.9 6.8 6.9 7.1 7.5 7.8 8.0 8.0 8.3 8.4 8.7 8.9 8.8 8.7 8.5 7.7 7.0 6.8 7.1 7.9 6.6 5.9 6.8 7.7 7.9 7.4 7.4 7.2 7.2 6.0 5.8 6.3 7.1 6.9 7.3 7.3
6.5 6.5 6.5 6.5 6.5 6.5 6.5 6.5 6.5 6.5 6.5 6.6 6.7 6.8 6.7 7.0 7.1 7.6 7.8 8.0 7.8 8.3 8.2 8.4 8.9 8.9 8.9 8.8 8.0 8.1 8.1 7.0 7.3 6.7 6.9 6.1 6.5 7.6 7.8 7.3 7.5 7.5 6.6 6.0 6.9 7.4 7.9 7.5 7.7
6.5 6.5 6.5 6.5 6.5 6.5 6.5 6.5 6.5 6.5 6.5 6.5 6.5 6.5 6.6 7.0 7.3 7.4 7.6 7.4 8.1 8.1 8.3 8.6 8.8 8.5 8.4 8.0 7.5 7.8 7.5 7.1 6.9 7.3 7.1 6.1 6.3 7.0 8.6 8.7 8.7 8.3 8.2 7.8 8.1 7.6 8.0 8.0 8.0
6.5 6.5 6.5 6.5 6.5 6.5 6.5 6.5 6.5 6.5 6.5 6.5 6.5 6.8 6.6 6.9 7.3 7.5 7.4 7.9 8.2 8.2 8.3 8.3 8.7 8.6 8.3 7.8 7.9 8.0 7.5 7.1 7.8 8.0 7.7 7.4 7.5 8.9 8.9 9.0 8.9 8.7 8.4 8.0 8.1 8.5 8.3 7.5 7.6
6.5 6.5 6.5 6.5 6.5 6.5 6.5 6.5 6.5 6.5 6.5 6.5 6.4 6.9 7.0 7.2 7.5 7.6 7.8 7.9 7.9 8.2 8.5 8.4 8.1 8.1 8.0 7.6 7.8 7.9 7.5 7.3 8.1 8.3 7.6 7.8 8.7 8.9 8.8 9.0 8.8 8.6 8.4 8.3 8.3 8.0 7.5 7.6 7.6
Wind_Speed
20 20 10 9 6 7 16 20 5 7 4 12 18 18 22 17 10 11 7 13 14 14 16 17 17 16 16 15 14 14 12 11 10 9 7 6 4 4 3 4 5 5 6 7 5 5 6 7 7
12 18 8 6 8 12 15 5 4 13 13 11 9 16 19 20 19 11 9 10 15 14 17 15 16 17 17 16 16 15 13 12 11 10 9 7 5 4 4 3 4 5 6 7 7 7 8 7 7
14 13 8 6 11 14 14 8 17 14 11 11 4 15 7 9 13 4 10 14 15 14 15 14 17 17 16 15 16 15 14 12 12 12 10 9 8 7 6 6 6 7 8 8 8 10 8 7 7
7 8 7 8 16 20 10 6 15 9 6 7 11 8 7 10 6 7 13 15 14 14 15 16 17 16 16 16 16 16 15 15 14 12 11 10 9 8 7 7 7 9 10 9 9 8 8 8 7
8 7 11 16 18 20 1 8 12 7 5 3 9 10 7 8 14 12 12 11 13 12 15 14 16 15 15 14 14 14 13 13 13 12 12 10 9 9 7 7 8 9 9 10 9 9 9 8 8
7 10 13 15 18 21 8 8 4 8 11 6 12 12 7 12 11 12 11 11 10 11 14 13 14 14 13 13 13 13 12 11 11 11 13 12 11 10 10 9 9 9 10 11 10 10 10 10 10
12 11 15 19 20 21 7 11 3 7 12 9 3 10 11 12 12 11 11 11 10 10 9 9 10 11 11 12 10 11 11 10 9 10 14 14 12 10 11 11 8 8 9 10 12 11 11 12 12
6 10 18 17 17 13 15 9 4 6 7 9 6 7 8 13 13 12 11 10 10 8 7 7 9 8 5 7 9 4 8 7 8 12 16 19 15 8 14 11 4 9 10 10 12 13 12 13 14
11 10 12 18 14 6 9 1 5 7 8 7 6 8 18 21 16 13 12 9 7 7 7 7 7 8 4 9 7 2 5 3 11 14 19 17 14 15 15 15 13 13 12 13 15 16 16 17 16
9 11 19 11 9 13 10 1 7 3 8 10 13 17 20 21 17 14 12 10 9 8 6 6 6 6 9 10 7 8 10 12 11 13 15 15 15 13 17 14 16 15 14 14 19 19 19 14 12
15 14 16 15 11 11 12 7 12 11 12 14 17 16 18 19 15 14 13 11 10 8 6 6 5 7 8 4 7 9 9 9 11 13 14 15 15 13 13 13 13 16 16 11 15 13 5 5 8
16 12 17 13 13 7 12 14 12 9 8 13 20 18 17 16 15 14 12 12 10 9 7 6 5 5 5 7 7 8 6 8 8 9 15 12 10 9 10 9 12 11 13 9 10 8 13 10 12
15 13 18 18 9 11 12 14 13 9 6 8 19 18 17 16 14 10 11 10 10 8 7 6 6 5 4 5 5 4 5 5 5 9 14 12 10 6 10 9 10 10 12 11 8 9 7 9 10
17 18 16 16 17 15 14 14 13 13 10 12 16 15 15 15 14 10 10 9 8 8 7 5 6 5 4 4 3 2 9 7 7 8 8 12 11 8 7 6 5 7 14 14 9 5 6 7 6
13 14 18 18 17 20 16 18 18 17 10 13 15 14 14 15 14 11 9 10 9 7 6 5 6 5 4 5 4 4 9 7 5 7 9 14 12 10 9 5 5 8 14 13 9 6 6 8 10
17 18 18 18 20 21 16 18 17 17 17 15 15 13 12 13 14 12 10 9 9 8 5 4 5 6 4 4 3 5 7 5 6 7 8 15 12 13 10 6 5 13 12 9 6 5 8 8 8
17 16 19 19 18 10 15 17 14 15 18 16 14 13 13 14 13 12 9 9 6 6 5 4 5 6 3 2 2 2 3 4 6 8 11 12 11 13 11 7 8 14 9 7 8 8 8 9 9
18 19 13 13 10 6 12 16 14 14 9 13 17 15 14 13 14 13 11 8 8 6 5 4 4 4 2 3 2 2 3 4 6 6 10 9 11 13 11 9 9 11 7 7 8 8 9 8 10
16 19 18 16 14 16 10 13 16 16 16 16 15 17 17 16 14 14 10 9 7 6 6 3 5 3 0 3 2 3 3 2 3 4 8 7 10 10 10 8 7 9 8 9 9 8 10 10 9
15 18 17 17 17 15 15 16 15 14 16 18 16 15 19 17 17 16 12 8 5 6 4 5 4 4 4 3 2 1 1 0 1 6 4 12 9 11 10 6 6 7 7 9 10 11 9 8 10
17 18 17 18 17 18 15 19 20 18 20 19 21 17 16 19 19 17 14 9 6 6 4 3 3 5 5 4 2 4 2 1 4 4 3 6 7 9 9 9 6 6 7 8 9 9 10 8 8
19 17 18 19 16 13 16 16 16 16 16 20 18 16 12 17 20 18 15 11 8 7 4 5 2 4 5 5 4 4 4 4 3 3 4 4 8 8 9 9 10 7 5 9 8 9 8 8 8
20 18 18 18 14 16 20 12 14 18 20 18 17 16 11 8 19 20 15 13 9 8 5 3 3 5 4 5 5 4 5 4 3 3 5 4 6 9 10 11 10 6 6 9 10 10 9 7 7
15 14 18 15 11 14 19 15 21 14 19 13 16 10 9 16 19 17 15 13 12 6 5 3 3 5 4 5 5 5 5 4 4 4 4 5 4 4 8 13 9 10 7 9 10 10 11 8 8
11 11 7 8 12 15 14 14 19 14 3 4 14 13 10 11 17 17 14 12 12 8 6 3 2 5 4 4 4 5 5 5 6 6 6 7 4 4 6 7 7 7 11 12 11 10 10 9 8
18 13 8 10 9 13 16 17 14 7 9 9 8 16 15 18 16 16 14 10 11 9 7 3 4 5 4 5 5 5 5 4 4 6 5 5 6 5 7 7 9 11 13 13 11 8 8 9 8
20 17 15 14 16 12 13 18 17 6 9 5 4 9 16 15 14 14 13 10 11 8 6 4 1 5 5 4 4 5 5 6 5 6 5 5 7 8 8 10 9 12 12 12 11 8 10 10 9
20 13 10 5 5 11 13 15 10 10 13 3 5 8 12 14 13 12 11 10 9 9 8 4 3 5 5 5 4 5 5 6 5 4 6 7 8 8 9 9 11 11 11 12 11 10 10 12 10
5 8 7 7 4 2 3 6 11 10 10 5 7 9 9 12 12 11 11 10 9 9 8 6 4 5 5 5 4 5 5 6 5 6 7 7 8 9 10 11 11 12 12 12 12 10 12 12 12
12 9 15 8 11 8 9 14 10 10 9 6 10 8 11 12 12 13 13 11 10 8 7 6 5 5 4 4 4 6 5 5 5 5 7 8 9 9 9 10 11 12 12 12 11 10 11 13 15
Wind_Direction
300 279 229 260 251 232 261 253 99 90 79 35 51 73 77 41 26 117 66 81 87 74 75 68 55 60 65 61 59 52 45 46 46 49 52 54 49 41 34 2 340 332 324 327 306 302 303 314 322
292 299 269 274 252 275 257 247 70 80 91 79 71 98 79 78 86 100 92 102 77 81 70 68 62 65 64 60 59 58 49 36 31 30 25 22 17 7 3 344 338 329 318 317 320 299 293 306 313
267 261 279 226 248 254 277 22 94 92 110 101 91 69 70 77 57 78 124 95 96 83 85 69 62 66 69 65 60 55 54 46 36 26 19 9 1 348 337 339 322 310 315 312 305 316 312 308 300
277 262 239 256 266 270 300 79 92 112 132 133 109 71 79 15 90 141 135 115 105 97 97 73 69 68 66 62 61 56 50 45 39 29 17 8 358 350 342 330 319 312 304 305 307 312 318 305 292
256 268 263 266 264 264 123 53 112 142 134 203 139 95 78 75 122 129 109 113 101 104 101 89 80 74 67 62 58 56 51 42 34 26 13 1 350 335 329 319 306 296 296 299 299 304 305 304 298
285 254 271 268 260 250 107 109 268 171 141 182 103 104 80 132 120 112 111 98 97 102 112 106 92 84 75 62 56 52 44 39 33 21 10 355 341 328 320 310 303 300 287 289 290 295 297 296 292
261 283 278 289 295 300 160 118 235 228 152 152 166 125 128 159 133 132 121 111 106 102 99 84 89 109 90 76 57 54 45 35 23 13 3 348 328 312 296 291 311 335 330 313 297 288 286 288 285
293 293 286 276 277 294 81 118 185 264 255 145 186 138 161 154 152 142 124 117 106 105 96 78 71 62 38 100 48 44 38 23 17 4 10 342 326 344 312 279 358 322 305 294 289 286 277 271 273
264 268 268 262 336 280 106 151 90 9 114 66 62 39 119 144 155 150 131 121 115 103 90 61 61 32 354 92 33 114 16 7 27 15 4 345 1 329 358 326 324 304 299 293 281 271 265 260 259
250 270 270 348 333 328 7 330 178 206 159 104 95 99 125 147 161 153 150 148 134 110 86 82 57 37 352 55 4 26 49 19 22 30 14 351 343 334 338 341 321 320 322 297 280 272 263 264 260
270 258 285 319 338 335 314 279 289 173 245 166 159 145 153 160 163 167 158 146 137 104 81 84 85 58 12 7 35 23 37 19 17 24 35 352 338 3 356 333 357 340 318 334 345 328 288 325 309
261 263 274 292 303 313 293 294 257 225 235 332 146 151 161 169 172 175 155 143 125 134 115 95 77 58 39 358 43 26 5 39 18 12 41 3 353 5 352 349 341 328 340 335 332 333 337 331 320
289 281 276 285 254 266 269 268 272 262 138 102 136 155 169 174 174 150 135 146 132 125 115 98 81 69 31 59 23 12 28 29 3 28 43 16 353 7 339 339 322 333 341 359 354 339 326 323 315
289 295 294 290 288 265 252 256 263 256 142 143 151 167 173 178 163 144 140 133 144 127 127 111 94 75 34 62 24 324 67 345 36 33 48 40 355 2 348 321 330 336 10 344 310 303 313 303 298
302 288 276 266 258 255 257 251 243 247 180 169 173 180 180 180 165 152 151 160 146 132 131 126 125 73 31 51 10 6 60 356 34 33 31 48 359 8 340 332 338 9 348 316 322 344 328 333 332
275 268 270 270 257 240 223 252 248 232 223 188 178 188 186 181 153 159 183 144 136 140 133 86 77 76 24 52 14 21 54 335 32 23 44 40 353 11 348 336 340 7 332 331 342 351 351 328 328
253 253 260 272 288 226 210 243 249 294 252 184 179 195 199 169 170 166 145 128 131 105 126 104 89 73 20 62 19 198 167 39 34 27 47 22 8 2 359 340 359 358 345 351 0 349 343 331 319
266 262 283 253 271 193 255 272 242 260 197 193 191 197 195 183 176 143 151 134 128 120 103 128 98 78 230 228 246 66 79 35 43 31 46 14 19 3 354 340 360 355 354 354 346 335 340 325 327
260 277 283 287 297 298 264 258 269 267 191 208 217 189 193 188 168 147 151 128 143 143 159 167 131 127 0 55 25 27 36 22 33 46 38 35 19 9 349 6 358 3 354 344 334 354 334 333 329
257 263 266 270 274 265 281 270 251 264 264 210 211 221 196 186 169 147 145 147 144 153 131 175 126 83 33 42 43 60 315 4 200 65 21 51 11 14 2 1 2 358 358 339 345 339 332 329 347
248 256 265 270 281 287 286 264 260 255 257 263 209 201 207 184 168 145 151 158 165 148 143 140 101 88 57 346 25 12 293 339 52 12 31 15 15 13 12 6 359 3 346 339 337 336 343 327 328
261 245 257 267 266 265 269 281 278 288 266 231 233 191 213 188 159 147 157 157 160 124 106 85 56 100 88 21 44 0 12 18 14 14 38 341 26 4 13 23 14 351 349 336 333 331 329 332 325
258 270 282 281 286 292 263 271 271 258 252 248 200 180 189 175 145 144 155 152 149 120 145 125 138 99 83 83 48 26 33 10 346 359 359 6 16 7 17 26 7 351 345 339 335 328 324 321 317
313 276 270 273 256 255 258 257 273 268 270 292 170 152 158 129 135 141 146 143 114 107 122 169 177 109 82 63 62 55 41 354 356 2 353 23 346 7 9 15 1 -0 345 336 327 323 319 319 310
268 267 241 241 227 249 255 247 256 263 284 13 149 160 151 138 138 137 138 133 131 151 143 155 194 108 89 73 62 49 35 357 10 18 8 350 351 4 10 355 359 351 337 330 324 320 316 317 314
231 231 229 245 251 267 278 264 271 59 99 111 118 153 148 127 131 134 135 143 135 132 146 201 175 131 97 64 45 49 24 24 14 18 1 333 359 347 348 356 353 350 337 333 326 321 316 313 314
237 243 234 256 275 280 267 277 295 260 128 80 45 137 135 129 127 132 139 163 134 151 124 99 170 109 85 64 49 47 36 25 22 12 5 1 344 344 350 350 349 337 336 331 329 323 320 320 320
233 246 255 115 230 246 249 256 260 36 83 126 103 99 120 124 136 144 150 128 137 132 125 120 65 78 71 52 35 48 33 23 8 359 15 0 353 333 340 341 337 333 333 332 332 326 323 316 319
261 265 180 208 178 229 287 268 109 82 83 333 119 120 129 140 146 151 132 139 134 125 134 134 108 93 80 67 43 43 39 23 5 15 15 359 335 337 340 336 334 335 335 335 332 329 325 343 331
293 200 283 277 236 237 248 252 302 77 95 181 131 153 157 153 155 146 145 150 136 135 133 107 111 102 83 75 62 60 36 16 15 20 10 345 342 342 339 339 336 336 336 336 333 345 343 338 326